Погода в Ульяновке

Россия / Санкт-Петербург и Ленинградская область     59°38′10″N   30°45′28″E
темп.,
°C
ветер,
м/с
пор.,
м/с
влажн.,
%
обл.,
%
осадки,
мм/ч
давл.,
гПа
погр.,
м
27 июля, вт
вт2700:00+17ююз116724 0.0 102011
03:00+17ююз22715 0.0 102035
06:00+17юз22713 0.0 102045
09:00+24юз12455 0.0 1019401
12:00+29ю12320 0.0 10192310
15:00+30ю322969 0.0 10172950
18:00+29ююв33305 0.0 10162446
21:00+22юв235444 0.0 101542
28 июля, ср
ср2800:00+19юв2358100 0.0 101548
03:00+18юв2465100 0.0 101469
06:00+18юв2567100 0.0 1012110
09:00+22ю3561100 0.0 1011422
12:00+26ююз3449100 0.1 10101460
15:00+21ю3774100 0.6 1009495
18:00+22ююв357397 0.1 1008875
21:00+19ю2795100 4.6 1006182
29 июля, чт
чт2900:00+17ююз259989 1.9 1006142
03:00+16зюз269810 1.9 1005146
06:00+16зюз279712 0.3 1004202
09:00+20зюз3684100 0.3 1004514
12:00+24зюз5752100 0.0 10031651
15:00+22зюз48704 1.3 10031241
18:00+22з48675 1.3 10021124
21:00+18зюз288958 1.8 1002198
30 июля, пт
пт3000:00+16юз289462 0.0 1002186
03:00+16юз3119194 0.0 1002383
06:00+15юз3118999 0.0 1002463
09:00+20юз4863100 0.1 10021067
12:00+24юз61040100 0.2 10012593
15:00+21юз5949100 0.2 10001152
18:00+19ююз49629 0.1 1000988
21:00+15ююз4118783 0.6 999313
31 июля, сб
сб3100:00+13ю3109424 0.5 998216
03:00+13ю515849 0.5 996545
06:00+14ююз61583100 0.9 994892
09:00+15юз61588100 7.5 9941234
12:00+20юз71376100 0.5 9941533
15:00+19зюз61183100 3.2 9951309
18:00+18юз51089100 2.6 996821
21:00+16зюз399212 5.6 997316